weather.gov     
National Weather Service

Terminal Aerodrome Forecast
NWS Homepage
This page is being discontinued on March 12, 2014.
The same data is available at this site. Please update your bookmarks.
Thank you, and we apologize for the inconvenience.
Please send an email to SR-SRH.Webmaster@noaa.gov with any concerns.


Current Version
Previous Version:    01  02  03  04  05  06  07  08  09  10  11  12  13  14  
[Printable]
825
FTUS41 KBOX 010822 AAA
TAFBOS
TAF AMD
KBOS 010822Z 0108/0212 02008KT P6SM OVC008
     FM011400 03013KT P6SM OVC008
     FM011900 04012KT 2SM -SHRA BR OVC008
     FM020600 03013KT 3SM BR OVC008=


825
FTUS41 KBOX 010822 AAA
TAFBOS
TAF AMD
KBOS 010822Z 0108/0212 02008KT P6SM OVC008
     FM011400 03013KT P6SM OVC008
     FM011900 04012KT 2SM -SHRA BR OVC008
     FM020600 03013KT 3SM BR OVC008=




U.S. Dept. of Commerce
NOAA National Weather Service
1325 East West Highway
Silver Spring, MD 20910
E-mail: w-nws.webmaster@noaa.gov
Page last modified: May 16, 2007
NATIONAL WEATHER SERVICE: for Safety, for Work, for Fun - FOR LIFE